Location: Cicognara
(44.9500°N, 10.4667°E)
Time: 07:13:17
(UTC+00:00)

SPOT 1/Viking Rocket - Pass Details

Date: 20 June 2021
Orbit: 778 x 793 km, 98.4° (Epoch: 04 August)

Event Time Altitude Azimuth Distance (km) Brightness Sun altitude
Exits shadow 20:40:41 10° 181° (S) 2,313 5.5 -12.6°
Maximum altitude 20:45:41 56° 259° (W) 922 4.1 -13.1°
Drops below altitude 10° 20:50:46 10° 338° (NNW) 2,340 7.4 -13.6°
Sets 20:53:09 0° 343° (NNW) 3,274 8.3 -13.9°
